Home   Weather   Township of Fairfield   Past weeks
Flag for USA

Past Weather in Township of Fairfield, Missouri, USA — Yesterday and Last 2 Weeks

Now
76 °F

Clear.


Feels Like: 78 °F
Forecast: 72 / 55 °F
Wind: 13 mph from Southwest

Location: Kansas City Downtown Airport
Current Time: Sep 27, 2020 at 12:12:03 am
Latest Report: Sep 26, 2020 at 10:54 pm
Visibility: 10 mi
Pressure29.70 "Hg
Humidity: 67%
Dew Point: 64 °F
Location of Township of FairfieldLocation

Past Weather in Township of Fairfield — Graph

°F

Township of Fairfield Temperature Yesterday

Maximum temperature yesterday: 90 °F (at 3:54 pm)
Minimum temperature yesterday: 65 °F (at 6:54 am)
Average temperature yesterday: 77 °F

High & Low Weather Summary for the Past Weeks

 TemperatureHumidityPressure
High90 °F (Sep 26, 3:54 pm)97% (Sep 13, 6:54 am)30.33 "Hg (Sep 13, 6:54 am)
Low54 °F (Sep 13, 6:54 am)35% (Sep 26, 3:54 pm)29.62 "Hg (Sep 26, 4:54 pm)
Average68 °F68%30.07 "Hg
* Reported Sep 11 10:54 pm — Sep 26 10:54 pm, Township of Fairfield. Weather by CustomWeather, © 2020

Note: Actual official high and low records may vary slightly from our data, if they occured in-between our weather recording intervals... More about our weather records

Township of Fairfield Weather History for the Previous 24 Hours

Scroll right to see more
 ConditionsComfort  
Time TempWeatherWind HumidityBarometerVisibility
10:54 pm
Sat, Sep 26
76 °FClear.13 mph67%29.70 "Hg10 mi
9:54 pm77 °FClear.15 mph62%29.69 "Hg10 mi
8:54 pm79 °FClear.14 mph56%29.67 "Hg10 mi
7:54 pm82 °FClear.16 mph46%29.66 "Hg10 mi
6:54 pm83 °FSunny.16 mph44%29.65 "Hg10 mi
5:54 pm86 °FSunny.22 mph40%29.65 "Hg10 mi
5:12 pm88 °FPassing clouds.20 mph38%29.66 "Hg10 mi
4:54 pm89 °FSunny.22 mph36%29.62 "Hg10 mi
3:54 pm90 °FSunny.23 mph35%29.64 "Hg10 mi
2:54 pm89 °FSunny.18 mph38%29.66 "Hg10 mi
1:54 pm86 °FSunny.13 mph45%29.69 "Hg10 mi
12:54 pm84 °FSunny.16 mph48%29.71 "Hg10 mi
11:57 am80 °FLight rain. Sunny.15 mph56%29.76 "Hg10 mi
10:54 am76 °FSunny.14 mph64%29.75 "Hg10 mi
9:54 am72 °FSunny.10 mph73%29.76 "Hg10 mi
8:54 am68 °FSunny.12 mph82%29.77 "Hg10 mi
7:54 am65 °FSunny.12 mph87%29.77 "Hg10 mi
6:54 am65 °FClear.8 mph87%29.77 "Hg10 mi
5:54 am66 °FClear.12 mph84%29.76 "Hg10 mi
4:54 am66 °FClear.8 mph84%29.76 "Hg10 mi
3:54 am67 °FClear.7 mph81%29.77 "Hg10 mi
2:54 am68 °FClear.7 mph82%29.77 "Hg10 mi
1:54 am69 °FClear.9 mph79%29.78 "Hg10 mi
12:54 am70 °FClear.9 mph76%29.78 "Hg10 mi
Weather by CustomWeather, © 2020

See weather overview